Nuiqsut, AK

3:43 PM AKST on January 18, 2017 (GMT -0900)
Nuiqsut

Weather History for PAQT - March, 2013

Change the Weather History Date:

Monday, March 11, 2013

  Actual Average (PAKU) Record (PAKU)
Temperature  
Mean Temperature -4 °F -  
Max Temperature 0 °F -7 °F 29 °F (1988)
Min Temperature -9 °F -17 °F -49 °F (1999)
Degree Days  
Heating Degree Days 70    
Moisture  
Dew Point -4 °F    
Average Humidity 93    
Maximum Humidity 100    
Minimum Humidity 84    
Precipitation  
Precipitation 0.00 in - - ()
Sea Level Pressure  
Sea Level Pressure 30.79 in    
Wind  
Wind Speed 4 mph (WSW)    
Max Wind Speed 8 mph    
Max Gust Speed -    
Visibility 3 miles    
Events Fog , Snow    
Averages and records for this station are not official NWS values.
T = Trace of Precipitation, MM = Missing Value Source: NWS Daily Summary

Daily Weather History Graph

Daily Weather History Graph

Search for Another Location

Airport or City:

Trip Planner

Search our weather history database for the weather conditions in past years. The results will help you decide how hot, cold, wet, or windy it might be!

Date:

Astronomy

Mar. 11, 2013 Rise Set
Actual Time 8:42 AM AKDT 7:47 PM AKDT
Civil Twilight 7:41 AM AKDT 8:48 PM AKDT
Nautical Twilight 6:28 AM AKDT 10:02 PM AKDT
Astronomical Twilight 5:01 AM AKDT 11:30 PM AKDT
Moon 8:03 AM AKDT (3/11) 8:47 PM AKDT (3/11)
Length of Visible Light 13h 06m
Length of Day
11h 04m
New Moon, 0% of the Moon is Illuminated
Mar 11
New Moon
Mar 19
First Quarter
Mar 27
Full
Apr 2
Last Quarter
Apr 10
New

Hourly Weather History & Observations

Time (AKDT) Temp. Windchill Dew Point Humidity Pressure Visibility Wind Dir Wind Speed Gust Speed Precip Events Conditions
12:00 AM -5.8 °F -14.5 °F -7.6 °F 92% 30.60 in 2.0 mi SE 3.5 mph - 0.00 in Snow Light Snow
12:34 AM -5.8 °F -16.7 °F -7.6 °F 92% 30.61 in 4.0 mi SSE 4.6 mph - 0.00 in   Overcast
12:53 AM -6.0 °F -14.7 °F -8.0 °F 91% 30.63 in 5.0 mi South 3.5 mph - 0.00 in   Overcast
1:12 AM -7.6 °F - -9.4 °F 92% 30.63 in 9.0 mi Calm Calm - N/A   Mostly Cloudy
1:53 AM -9.0 °F -22.3 °F -11.0 °F 91% 30.65 in 10.0 mi SW 5.8 mph - N/A   Partly Cloudy
2:11 AM -9.4 °F -20.9 °F -13.0 °F 84% 30.65 in 10.0 mi SW 4.6 mph - N/A   Partly Cloudy
2:24 AM -7.6 °F -18.8 °F -9.4 °F 92% 30.65 in 10.0 mi SW 4.6 mph - N/A   Mostly Cloudy
2:53 AM -5.1 °F -15.8 °F -7.1 °F 91% 30.68 in 10.0 mi WSW 4.6 mph - N/A   Overcast
3:22 AM -0.4 °F -10.4 °F -2.2 °F 92% 30.68 in 8.0 mi WSW 4.6 mph - N/A   Overcast
3:53 AM -0.9 °F -14.1 °F -2.0 °F 95% 30.69 in 8.0 mi WSW 6.9 mph - 0.00 in   Overcast
4:53 AM -2.0 °F -16.6 °F -4.0 °F 91% 30.71 in 4.0 mi West 8.1 mph - 0.00 in   Overcast
5:07 AM -2.2 °F -15.6 °F -2.2 °F 100% 30.71 in 2.5 mi West 6.9 mph - N/A   Overcast
5:53 AM -2.0 °F -15.4 °F -2.9 °F 96% 30.73 in 3.0 mi West 6.9 mph - N/A   Overcast
6:53 AM -2.0 °F -12.2 °F -4.0 °F 91% 30.75 in 7.0 mi WNW 4.6 mph - N/A   Overcast
7:53 AM -0.9 °F -11.0 °F -2.9 °F 91% 30.77 in 9.0 mi West 4.6 mph - N/A   Overcast
8:53 AM -0.9 °F -8.9 °F -2.9 °F 91% 30.79 in 7.0 mi WSW 3.5 mph - N/A   Overcast
9:53 AM -0.9 °F -12.7 °F -2.9 °F 91% 30.79 in 3.0 mi SW 5.8 mph - N/A   Overcast
10:29 AM -0.4 °F -12.0 °F -2.2 °F 92% 30.80 in 2.0 mi West 5.8 mph - N/A   Overcast
10:53 AM -0.9 °F -14.1 °F -2.9 °F 91% 30.80 in 1.5 mi SW 6.9 mph - N/A   Overcast
11:03 AM -0.4 °F -10.4 °F -0.4 °F 100% 30.80 in 3.0 mi WSW 4.6 mph - N/A   Overcast
11:15 AM -0.4 °F -10.4 °F -2.2 °F 92% 30.80 in 1.8 mi SW 4.6 mph - N/A   Overcast
11:23 AM -0.4 °F -8.3 °F -2.2 °F 92% 30.80 in 3.0 mi West 3.5 mph - N/A   Overcast
11:37 AM -0.4 °F -10.4 °F -2.2 °F 92% 30.81 in 1.8 mi West 4.6 mph - N/A   Overcast
11:50 AM -0.4 °F -8.3 °F -2.2 °F 92% 30.82 in 3.0 mi WSW 3.5 mph - N/A   Overcast
11:51 AM -0.9 °F -11.0 °F -2.0 °F 95% 30.82 in 3.0 mi WSW 4.6 mph - N/A   Overcast
12:41 PM -2.2 °F - -2.2 °F 100% 30.82 in 2.5 mi Calm Calm - N/A   Overcast
12:53 PM -2.0 °F -10.1 °F -4.0 °F 91% 30.83 in 2.5 mi WNW 3.5 mph - N/A   Overcast
1:40 PM -0.4 °F - -2.2 °F 92% 30.83 in 1.5 mi Calm Calm - N/A   Overcast
1:53 PM -2.0 °F -10.1 °F -2.9 °F 96% 30.84 in 1.8 mi West 3.5 mph - N/A   Overcast
2:36 PM -2.2 °F -10.4 °F -2.2 °F 100% 30.83 in 0.8 mi SW 3.5 mph - N/A   Overcast
2:53 PM -0.9 °F -8.9 °F -2.9 °F 91% 30.84 in 1.0 mi WNW 3.5 mph - N/A   Overcast
3:02 PM -2.2 °F -10.4 °F -2.2 °F 100% 30.84 in 0.8 mi SW 3.5 mph - N/A   Overcast
3:13 PM -0.4 °F - -2.2 °F 92% 30.84 in 1.2 mi Calm Calm - N/A   Overcast
3:40 PM -0.4 °F -13.4 °F -2.2 °F 92% 30.85 in 2.5 mi WSW 6.9 mph - N/A   Overcast
3:49 PM -2.2 °F - -2.2 °F 100% 30.85 in 1.2 mi Calm Calm - N/A   Overcast
3:53 PM -2.0 °F -13.9 °F -2.0 °F 100% 30.86 in 1.5 mi SW 5.8 mph - N/A   Overcast
4:53 PM -2.0 °F -13.9 °F -4.0 °F 91% 30.87 in 1.2 mi West 5.8 mph - N/A   Overcast
5:04 PM -2.2 °F -14.2 °F -4.0 °F 92% 30.86 in 2.0 mi West 5.8 mph - N/A   Overcast
5:26 PM -2.2 °F -14.2 °F -4.0 °F 92% 30.87 in 1.2 mi WSW 5.8 mph - N/A   Overcast
5:53 PM -2.9 °F -13.3 °F -4.0 °F 95% 30.87 in 1.8 mi SW 4.6 mph - N/A   Overcast
6:16 PM -2.2 °F - -4.0 °F 92% 30.86 in 0.8 mi Calm Calm - N/A   Overcast
6:28 PM -2.2 °F -14.2 °F -5.8 °F 85% 30.87 in 1.5 mi WSW 5.8 mph - N/A   Overcast
6:41 PM -2.2 °F -12.5 °F -5.8 °F 85% 30.86 in 0.5 mi SSW 4.6 mph - N/A Fog Light Freezing Fog
6:53 PM -4.0 °F -16.3 °F -5.1 °F 95% 30.87 in 0.5 mi South 5.8 mph - N/A Fog Light Freezing Fog
7:53 PM -4.0 °F -14.6 °F -6.0 °F 91% 30.87 in 0.2 mi SW 4.6 mph - N/A Fog Light Freezing Fog
8:32 PM -4.0 °F -16.3 °F -5.8 °F 92% 30.86 in 0.8 mi SSW 5.8 mph - N/A   Overcast
8:46 PM -4.0 °F -19.0 °F -5.8 °F 92% 30.85 in 0.8 mi South 8.1 mph - N/A   Mist
8:53 PM -4.0 °F -16.3 °F -5.1 °F 95% 30.86 in 0.8 mi SSW 5.8 mph - N/A   Mist
9:53 PM -4.0 °F -12.4 °F -5.1 °F 95% 30.86 in 0.8 mi SW 3.5 mph - N/A   Mist
10:53 PM -5.1 °F -13.6 °F -6.0 °F 96% 30.85 in 0.8 mi SW 3.5 mph - N/A   Mist
11:53 PM -5.1 °F -15.8 °F -6.0 °F 96% 30.84 in 0.8 mi WSW 4.6 mph - N/A   Mist